#datetime,building,power
2022-01-09T00:00:00,pkn,1.20
2022-01-09T00:02:00,pkn,1.20
2022-01-09T00:04:00,pkn,1.20
2022-01-09T00:06:00,pkn,2.40
2022-01-09T00:09:00,pkn,1.20
2022-01-09T00:11:00,pkn,2.40
2022-01-09T00:14:00,pkn,2.40
2022-01-09T00:16:00,pkn,1.20
2022-01-09T00:18:00,pkn,1.20
2022-01-09T00:20:00,pkn,1.20
2022-01-09T00:22:00,pkn,1.20
2022-01-09T00:23:00,pkn,1.20
2022-01-09T00:25:00,pkn,1.20
2022-01-09T00:27:00,pkn,1.20
2022-01-09T00:30:00,pkn,1.20
2022-01-09T00:32:00,pkn,1.20
2022-01-09T00:34:00,pkn,2.40
2022-01-09T00:36:00,pkn,1.20
2022-01-09T00:38:00,pkn,1.20
2022-01-09T00:40:00,pkn,9.60
2022-01-09T00:41:00,pkn,3.60
2022-01-09T00:43:00,pkn,9.60
2022-01-09T00:45:00,pkn,9.60
2022-01-09T00:47:00,pkn,4.80
2022-01-09T00:49:00,pkn,1.20
2022-01-09T00:51:00,pkn,1.20
2022-01-09T00:52:00,pkn,1.20
2022-01-09T00:54:00,pkn,1.20
2022-01-09T00:56:00,pkn,1.20
2022-01-09T00:58:00,pkn,1.20
2022-01-09T01:01:00,pkn,1.20
2022-01-09T01:03:00,pkn,1.20
2022-01-09T01:05:00,pkn,1.20
2022-01-09T01:07:00,pkn,1.20
2022-01-09T01:08:00,pkn,1.20
2022-01-09T01:11:00,pkn,1.20
2022-01-09T01:13:00,pkn,1.20
2022-01-09T01:15:00,pkn,1.20
2022-01-09T01:17:00,pkn,1.20
2022-01-09T01:19:00,pkn,1.20
2022-01-09T01:21:00,pkn,1.20
2022-01-09T01:23:00,pkn,1.20
2022-01-09T01:25:00,pkn,1.20
2022-01-09T01:27:00,pkn,1.20
2022-01-09T01:30:00,pkn,1.20
2022-01-09T01:31:00,pkn,1.20
2022-01-09T01:33:00,pkn,1.20
2022-01-09T01:36:00,pkn,1.20
2022-01-09T01:38:00,pkn,1.20
2022-01-09T01:40:00,pkn,1.20
2022-01-09T01:44:00,pkn,1.20
2022-01-09T01:46:00,pkn,1.20
2022-01-09T01:48:00,pkn,1.20
2022-01-09T01:49:00,pkn,1.20
2022-01-09T01:52:00,pkn,1.20
2022-01-09T01:53:00,pkn,1.20
2022-01-09T01:55:00,pkn,1.20
2022-01-09T01:58:00,pkn,1.20
2022-01-09T02:00:00,pkn,1.20
2022-01-09T02:02:00,pkn,1.20
2022-01-09T02:04:00,pkn,1.20
2022-01-09T02:06:00,pkn,1.20
2022-01-09T02:08:00,pkn,1.20
2022-01-09T02:09:00,pkn,1.20
2022-01-09T02:11:00,pkn,8.40
2022-01-09T02:13:00,pkn,9.60
2022-01-09T02:15:00,pkn,9.60
2022-01-09T02:17:00,pkn,6.00
2022-01-09T02:18:00,pkn,1.20
2022-01-09T02:20:00,pkn,1.20
2022-01-09T02:22:00,pkn,1.20
2022-01-09T02:23:00,pkn,1.20
2022-01-09T02:25:00,pkn,1.20
2022-01-09T02:27:00,pkn,1.20
2022-01-09T02:28:00,pkn,1.20
2022-01-09T02:30:00,pkn,1.20
2022-01-09T02:33:00,pkn,1.20
2022-01-09T02:34:00,pkn,1.20
2022-01-09T02:36:00,pkn,1.20
2022-01-09T02:38:00,pkn,1.20
2022-01-09T02:40:00,pkn,1.20
2022-01-09T02:42:00,pkn,1.20
2022-01-09T02:44:00,pkn,1.20
2022-01-09T02:46:00,pkn,1.20
2022-01-09T02:47:00,pkn,1.20
2022-01-09T02:49:00,pkn,1.20
2022-01-09T02:52:00,pkn,1.20
2022-01-09T02:54:00,pkn,1.20
2022-01-09T02:56:00,pkn,1.20
2022-01-09T02:57:00,pkn,1.20
2022-01-09T02:59:00,pkn,1.20
2022-01-09T03:01:00,pkn,1.20
2022-01-09T03:03:00,pkn,1.20
2022-01-09T03:06:00,pkn,1.20
2022-01-09T03:08:00,pkn,1.20
2022-01-09T03:10:00,pkn,1.20
2022-01-09T03:12:00,pkn,1.20
2022-01-09T03:14:00,pkn,1.20
2022-01-09T03:16:00,pkn,1.20
2022-01-09T03:18:00,pkn,1.20
2022-01-09T03:20:00,pkn,1.20
2022-01-09T03:23:00,pkn,1.20
2022-01-09T03:24:00,pkn,1.20
2022-01-09T03:26:00,pkn,1.20
2022-01-09T03:28:00,pkn,1.20
2022-01-09T03:30:00,pkn,1.20
2022-01-09T03:32:00,pkn,1.20
2022-01-09T03:34:00,pkn,1.20
2022-01-09T03:36:00,pkn,1.20
2022-01-09T03:38:00,pkn,1.20
2022-01-09T03:40:00,pkn,1.20
2022-01-09T03:41:00,pkn,1.20
2022-01-09T03:43:00,pkn,1.20
2022-01-09T03:45:00,pkn,1.20
2022-01-09T03:47:00,pkn,1.20
2022-01-09T03:48:00,pkn,1.20
2022-01-09T03:50:00,pkn,1.20
2022-01-09T03:53:00,pkn,2.40
2022-01-09T03:56:00,pkn,1.20
2022-01-09T03:58:00,pkn,1.20
2022-01-09T03:59:00,pkn,1.20
2022-01-09T04:02:00,pkn,3.60
2022-01-09T04:03:00,pkn,4.80
2022-01-09T04:05:00,pkn,8.40
2022-01-09T04:07:00,pkn,9.60
2022-01-09T04:08:00,pkn,6.00
2022-01-09T04:10:00,pkn,3.60
2022-01-09T04:13:00,pkn,1.20
2022-01-09T04:14:00,pkn,1.20
2022-01-09T04:17:00,pkn,1.20
2022-01-09T04:18:00,pkn,1.20
2022-01-09T04:20:00,pkn,1.20
2022-01-09T04:23:00,pkn,1.20
2022-01-09T04:24:00,pkn,1.20
2022-01-09T04:26:00,pkn,1.20
2022-01-09T04:28:00,pkn,1.20
2022-01-09T04:31:00,pkn,1.20
2022-01-09T04:33:00,pkn,1.20
2022-01-09T04:35:00,pkn,1.20
2022-01-09T04:37:00,pkn,1.20
2022-01-09T04:39:00,pkn,1.20
2022-01-09T04:41:00,pkn,1.20
2022-01-09T04:42:00,pkn,1.20
2022-01-09T04:44:00,pkn,1.20
2022-01-09T04:46:00,pkn,1.20
2022-01-09T04:48:00,pkn,1.20
2022-01-09T04:52:00,pkn,1.20
2022-01-09T04:54:00,pkn,1.20
2022-01-09T04:56:00,pkn,1.20
2022-01-09T04:57:00,pkn,1.20
2022-01-09T04:59:00,pkn,1.20
2022-01-09T05:02:00,pkn,1.20
2022-01-09T05:04:00,pkn,1.20
2022-01-09T05:06:00,pkn,1.20
2022-01-09T05:08:00,pkn,1.20
2022-01-09T05:10:00,pkn,1.20
2022-01-09T05:12:00,pkn,2.40
2022-01-09T05:14:00,pkn,1.20
2022-01-09T05:16:00,pkn,1.20
2022-01-09T05:17:00,pkn,1.20
2022-01-09T05:19:00,pkn,1.20
2022-01-09T05:21:00,pkn,1.20
2022-01-09T05:23:00,pkn,1.20
2022-01-09T05:25:00,pkn,1.20
2022-01-09T05:27:00,pkn,1.20
2022-01-09T05:29:00,pkn,1.20
2022-01-09T05:31:00,pkn,1.20
2022-01-09T05:33:00,pkn,1.20
2022-01-09T05:35:00,pkn,1.20
2022-01-09T05:37:00,pkn,1.20
2022-01-09T05:39:00,pkn,1.20
2022-01-09T05:41:00,pkn,1.20
2022-01-09T05:43:00,pkn,1.20
2022-01-09T05:45:00,pkn,1.20
2022-01-09T05:47:00,pkn,1.20
2022-01-09T05:49:00,pkn,1.20
2022-01-09T05:51:00,pkn,1.20
2022-01-09T05:52:00,pkn,1.20
2022-01-09T05:54:00,pkn,1.20
2022-01-09T05:56:00,pkn,1.20
2022-01-09T05:59:00,pkn,2.40
2022-01-09T06:02:00,pkn,1.20
2022-01-09T06:04:00,pkn,1.20
2022-01-09T06:05:00,pkn,1.20
2022-01-09T06:07:00,pkn,1.20
2022-01-09T06:10:00,pkn,1.20
2022-01-09T06:11:00,pkn,1.20
2022-01-09T06:13:00,pkn,1.20
2022-01-09T06:15:00,pkn,1.20
2022-01-09T06:17:00,pkn,1.20
2022-01-09T06:19:00,pkn,1.20
2022-01-09T06:21:00,pkn,1.20
2022-01-09T06:23:00,pkn,4.80
2022-01-09T06:25:00,pkn,9.60
2022-01-09T06:26:00,pkn,6.00
2022-01-09T06:28:00,pkn,8.40
2022-01-09T06:30:00,pkn,3.60
2022-01-09T06:32:00,pkn,1.20
2022-01-09T06:34:00,pkn,1.20
2022-01-09T06:37:00,pkn,1.20
2022-01-09T06:39:00,pkn,1.20
2022-01-09T06:41:00,pkn,1.20
2022-01-09T06:43:00,pkn,1.20
2022-01-09T06:45:00,pkn,2.40
2022-01-09T06:47:00,pkn,1.20
2022-01-09T06:49:00,pkn,1.20
2022-01-09T06:50:00,pkn,1.20
2022-01-09T06:52:00,pkn,1.20
2022-01-09T06:53:00,pkn,1.20
2022-01-09T06:55:00,pkn,1.20
2022-01-09T06:56:00,pkn,1.20
2022-01-09T06:58:00,pkn,1.20
2022-01-09T07:01:00,pkn,1.20
2022-01-09T07:03:00,pkn,1.20
2022-01-09T07:04:00,pkn,1.20
2022-01-09T07:06:00,pkn,1.20
2022-01-09T07:10:00,pkn,1.20
2022-01-09T07:12:00,pkn,1.20
2022-01-09T07:14:00,pkn,1.20
2022-01-09T07:15:00,pkn,1.20
2022-01-09T07:17:00,pkn,1.20
2022-01-09T07:19:00,pkn,1.20
2022-01-09T07:22:00,pkn,1.20
2022-01-09T07:23:00,pkn,1.20
2022-01-09T07:25:00,pkn,1.20
2022-01-09T07:27:00,pkn,1.20
2022-01-09T07:29:00,pkn,1.20
2022-01-09T07:32:00,pkn,1.20
2022-01-09T07:33:00,pkn,1.20
2022-01-09T07:35:00,pkn,1.20
2022-01-09T07:37:00,pkn,1.20
2022-01-09T07:40:00,pkn,1.20
2022-01-09T07:41:00,pkn,1.20
2022-01-09T07:44:00,pkn,1.20
2022-01-09T07:46:00,pkn,1.20
2022-01-09T07:48:00,pkn,1.20
2022-01-09T07:49:00,pkn,1.20
2022-01-09T07:51:00,pkn,1.20
2022-01-09T07:53:00,pkn,1.20
2022-01-09T07:57:00,pkn,1.20
2022-01-09T07:58:00,pkn,1.20
2022-01-09T08:00:00,pkn,1.20
2022-01-09T08:02:00,pkn,1.20
2022-01-09T08:04:00,pkn,1.20
2022-01-09T08:08:00,pkn,1.20
2022-01-09T08:09:00,pkn,1.20
2022-01-09T08:11:00,pkn,1.20
2022-01-09T08:13:00,pkn,1.20
2022-01-09T08:14:00,pkn,1.20
2022-01-09T08:16:00,pkn,1.20
2022-01-09T08:18:00,pkn,1.20
2022-01-09T08:19:00,pkn,1.20
2022-01-09T08:21:00,pkn,1.20
2022-01-09T08:23:00,pkn,1.20
2022-01-09T08:25:00,pkn,1.20
2022-01-09T08:28:00,pkn,1.20
2022-01-09T08:30:00,pkn,2.40
2022-01-09T08:33:00,pkn,1.20
2022-01-09T08:35:00,pkn,1.20
2022-01-09T08:37:00,pkn,1.20
2022-01-09T08:39:00,pkn,1.20
2022-01-09T08:41:00,pkn,1.20
2022-01-09T08:44:00,pkn,1.20
2022-01-09T08:45:00,pkn,1.20
2022-01-09T08:48:00,pkn,1.20
2022-01-09T08:50:00,pkn,1.20
2022-01-09T08:52:00,pkn,1.20
2022-01-09T08:55:00,pkn,1.20
2022-01-09T08:57:00,pkn,1.20
2022-01-09T09:00:00,pkn,1.20
2022-01-09T09:02:00,pkn,1.20
2022-01-09T09:04:00,pkn,1.20
2022-01-09T09:06:00,pkn,1.20
2022-01-09T09:07:00,pkn,1.20
2022-01-09T09:09:00,pkn,1.20
2022-01-09T09:12:00,pkn,3.60
2022-01-09T09:13:00,pkn,6.00
2022-01-09T09:15:00,pkn,8.40
2022-01-09T09:17:00,pkn,9.60
2022-01-09T09:20:00,pkn,1.20
2022-01-09T09:22:00,pkn,1.20
2022-01-09T09:25:00,pkn,1.20
2022-01-09T09:27:00,pkn,1.20
2022-01-09T09:28:00,pkn,1.20
2022-01-09T09:30:00,pkn,1.20
2022-01-09T09:32:00,pkn,1.20
2022-01-09T09:34:00,pkn,1.20
2022-01-09T09:37:00,pkn,1.20
2022-01-09T09:39:00,pkn,1.20
2022-01-09T09:41:00,pkn,1.20
2022-01-09T09:43:00,pkn,1.20
2022-01-09T09:44:00,pkn,1.20
2022-01-09T09:46:00,pkn,1.20
2022-01-09T09:48:00,pkn,1.20
2022-01-09T09:49:00,pkn,1.20
2022-01-09T09:51:00,pkn,1.20
2022-01-09T09:53:00,pkn,1.20
2022-01-09T09:55:00,pkn,1.20
2022-01-09T09:56:00,pkn,1.20
2022-01-09T09:58:00,pkn,1.20
2022-01-09T10:00:00,pkn,1.20
2022-01-09T10:03:00,pkn,1.20
2022-01-09T10:04:00,pkn,1.20
2022-01-09T10:06:00,pkn,1.20
2022-01-09T10:09:00,pkn,1.20
2022-01-09T10:11:00,pkn,1.20
2022-01-09T10:13:00,pkn,1.20
2022-01-09T10:14:00,pkn,1.20
2022-01-09T10:17:00,pkn,1.20
2022-01-09T10:18:00,pkn,1.20
2022-01-09T10:22:00,pkn,1.20
2022-01-09T10:23:00,pkn,1.20
2022-01-09T10:26:00,pkn,1.20
2022-01-09T10:28:00,pkn,1.20
2022-01-09T10:29:00,pkn,1.20
2022-01-09T10:32:00,pkn,1.20
2022-01-09T10:34:00,pkn,1.20
2022-01-09T10:36:00,pkn,1.20
2022-01-09T10:37:00,pkn,1.20
2022-01-09T10:39:00,pkn,1.20
2022-01-09T10:41:00,pkn,1.20
2022-01-09T10:43:00,pkn,1.20
2022-01-09T10:45:00,pkn,1.20
2022-01-09T10:47:00,pkn,1.20
2022-01-09T10:49:00,pkn,1.20
2022-01-09T10:51:00,pkn,1.20
2022-01-09T10:53:00,pkn,1.20
2022-01-09T10:55:00,pkn,1.20
2022-01-09T10:57:00,pkn,1.20
2022-01-09T11:01:00,pkn,2.40
2022-01-09T11:03:00,pkn,1.20
2022-01-09T11:05:00,pkn,1.20
2022-01-09T11:08:00,pkn,1.20
2022-01-09T11:10:00,pkn,1.20
2022-01-09T11:12:00,pkn,1.20
2022-01-09T11:14:00,pkn,1.20
2022-01-09T11:16:00,pkn,1.20
2022-01-09T11:18:00,pkn,1.20
2022-01-09T11:19:00,pkn,1.20
2022-01-09T11:22:00,pkn,1.20
2022-01-09T11:24:00,pkn,2.40
2022-01-09T11:26:00,pkn,1.20
2022-01-09T11:28:00,pkn,1.20
2022-01-09T11:31:00,pkn,2.40
2022-01-09T11:33:00,pkn,1.20
2022-01-09T11:36:00,pkn,1.20
2022-01-09T11:38:00,pkn,1.20
2022-01-09T11:39:00,pkn,1.20
2022-01-09T11:43:00,pkn,1.20
2022-01-09T11:45:00,pkn,1.20
2022-01-09T11:47:00,pkn,1.20
2022-01-09T11:49:00,pkn,1.20
2022-01-09T11:51:00,pkn,1.20
2022-01-09T11:53:00,pkn,1.20
2022-01-09T11:56:00,pkn,1.20
2022-01-09T11:59:00,pkn,1.20
2022-01-09T12:01:00,pkn,1.20
2022-01-09T12:03:00,pkn,1.20
2022-01-09T12:04:00,pkn,1.20
2022-01-09T12:06:00,pkn,1.20
2022-01-09T12:08:00,pkn,1.20
2022-01-09T12:10:00,pkn,1.20
2022-01-09T12:11:00,pkn,7.20
2022-01-09T12:12:00,pkn,4.80
2022-01-09T12:13:00,pkn,3.60
2022-01-09T12:14:00,pkn,4.80
2022-01-09T12:15:00,pkn,1.20
2022-01-09T12:16:00,pkn,6.00
2022-01-09T12:18:00,pkn,1.20
2022-01-09T12:21:00,pkn,1.20
2022-01-09T12:23:00,pkn,1.20
2022-01-09T12:25:00,pkn,1.20
2022-01-09T12:26:00,pkn,1.20
2022-01-09T12:28:00,pkn,1.20
2022-01-09T12:30:00,pkn,1.20
2022-01-09T12:33:00,pkn,1.20
2022-01-09T12:35:00,pkn,1.20
2022-01-09T12:36:00,pkn,1.20
2022-01-09T12:38:00,pkn,1.20
2022-01-09T12:41:00,pkn,1.20
2022-01-09T12:43:00,pkn,1.20
2022-01-09T12:45:00,pkn,2.40
2022-01-09T12:47:00,pkn,1.20
2022-01-09T12:49:00,pkn,1.20
2022-01-09T12:51:00,pkn,1.20
2022-01-09T12:53:00,pkn,1.20
2022-01-09T12:55:00,pkn,2.40
2022-01-09T12:57:00,pkn,1.20
2022-01-09T12:59:00,pkn,1.20
2022-01-09T13:01:00,pkn,2.40
2022-01-09T13:03:00,pkn,8.40
2022-01-09T13:05:00,pkn,8.40
2022-01-09T13:06:00,pkn,4.80
2022-01-09T13:08:00,pkn,10.80
2022-01-09T13:09:00,pkn,4.80
2022-01-09T13:10:00,pkn,6.00
2022-01-09T13:12:00,pkn,12.00
2022-01-09T13:14:00,pkn,4.80
2022-01-09T13:15:00,pkn,2.40
2022-01-09T13:17:00,pkn,1.20
2022-01-09T13:20:00,pkn,1.20
2022-01-09T13:21:00,pkn,1.20
2022-01-09T13:22:00,pkn,1.20
2022-01-09T13:24:00,pkn,1.20
2022-01-09T13:26:00,pkn,8.40
2022-01-09T13:28:00,pkn,8.40
2022-01-09T13:30:00,pkn,10.80
2022-01-09T13:31:00,pkn,3.60
2022-01-09T13:33:00,pkn,7.20
2022-01-09T13:35:00,pkn,1.20
2022-01-09T13:38:00,pkn,1.20
2022-01-09T13:40:00,pkn,1.20
2022-01-09T13:42:00,pkn,1.20
2022-01-09T13:44:00,pkn,1.20
2022-01-09T13:46:00,pkn,1.20
2022-01-09T13:47:00,pkn,1.20
2022-01-09T13:49:00,pkn,1.20
2022-01-09T13:50:00,pkn,1.20
2022-01-09T13:52:00,pkn,8.40
2022-01-09T13:54:00,pkn,8.40
2022-01-09T13:55:00,pkn,4.80
2022-01-09T13:57:00,pkn,9.60
2022-01-09T13:59:00,pkn,9.60
2022-01-09T14:02:00,pkn,1.20
2022-01-09T14:03:00,pkn,1.20
2022-01-09T14:06:00,pkn,1.20
2022-01-09T14:08:00,pkn,1.20
2022-01-09T14:10:00,pkn,2.40
2022-01-09T14:12:00,pkn,1.20
2022-01-09T14:14:00,pkn,1.20
2022-01-09T14:16:00,pkn,1.20
2022-01-09T14:18:00,pkn,3.60
2022-01-09T14:20:00,pkn,3.60
2022-01-09T14:21:00,pkn,1.20
2022-01-09T14:23:00,pkn,4.80
2022-01-09T14:25:00,pkn,2.40
2022-01-09T14:27:00,pkn,7.20
2022-01-09T14:28:00,pkn,4.80
2022-01-09T14:30:00,pkn,10.80
2022-01-09T14:32:00,pkn,8.40
2022-01-09T14:34:00,pkn,1.20
2022-01-09T14:36:00,pkn,1.20
2022-01-09T14:37:00,pkn,1.20
2022-01-09T14:39:00,pkn,1.20
2022-01-09T14:41:00,pkn,1.20
2022-01-09T14:43:00,pkn,1.20
2022-01-09T14:45:00,pkn,1.20
2022-01-09T14:46:00,pkn,1.20
2022-01-09T14:48:00,pkn,1.20
2022-01-09T14:50:00,pkn,2.40
2022-01-09T14:52:00,pkn,1.20
2022-01-09T14:54:00,pkn,1.20
2022-01-09T14:56:00,pkn,1.20
2022-01-09T14:58:00,pkn,1.20
2022-01-09T15:00:00,pkn,1.20
2022-01-09T15:03:00,pkn,2.40
2022-01-09T15:06:00,pkn,1.20
2022-01-09T15:08:00,pkn,7.20
2022-01-09T15:10:00,pkn,8.40
2022-01-09T15:12:00,pkn,9.60
2022-01-09T15:13:00,pkn,6.00
2022-01-09T15:15:00,pkn,2.40
2022-01-09T15:17:00,pkn,1.20
2022-01-09T15:19:00,pkn,1.20
2022-01-09T15:20:00,pkn,1.20
2022-01-09T15:22:00,pkn,1.20
2022-01-09T15:24:00,pkn,1.20
2022-01-09T15:26:00,pkn,1.20
2022-01-09T15:28:00,pkn,1.20
2022-01-09T15:30:00,pkn,1.20
2022-01-09T15:32:00,pkn,2.40
2022-01-09T15:35:00,pkn,1.20
2022-01-09T15:36:00,pkn,1.20
2022-01-09T15:38:00,pkn,1.20
2022-01-09T15:40:00,pkn,1.20
2022-01-09T15:42:00,pkn,1.20
2022-01-09T15:44:00,pkn,1.20
2022-01-09T15:45:00,pkn,1.20
2022-01-09T15:47:00,pkn,1.20
2022-01-09T15:49:00,pkn,1.20
2022-01-09T15:50:00,pkn,1.20
2022-01-09T15:52:00,pkn,1.20
2022-01-09T15:54:00,pkn,1.20
2022-01-09T15:56:00,pkn,2.40
2022-01-09T15:58:00,pkn,1.20
2022-01-09T15:59:00,pkn,1.20
2022-01-09T16:00:00,pkn,1.20
2022-01-09T16:02:00,pkn,2.40
2022-01-09T16:04:00,pkn,10.80
2022-01-09T16:06:00,pkn,9.60
2022-01-09T16:08:00,pkn,10.80
2022-01-09T16:09:00,pkn,2.40
2022-01-09T16:10:00,pkn,1.20
2022-01-09T16:12:00,pkn,2.40
2022-01-09T16:13:00,pkn,1.20
2022-01-09T16:15:00,pkn,2.40
2022-01-09T16:17:00,pkn,1.20
2022-01-09T16:18:00,pkn,1.20
2022-01-09T16:20:00,pkn,2.40
2022-01-09T16:21:00,pkn,1.20
2022-01-09T16:23:00,pkn,1.20
2022-01-09T16:25:00,pkn,2.40
2022-01-09T16:26:00,pkn,1.20
2022-01-09T16:28:00,pkn,1.20
2022-01-09T16:30:00,pkn,2.40
2022-01-09T16:32:00,pkn,1.20
2022-01-09T16:34:00,pkn,2.40
2022-01-09T16:36:00,pkn,2.40
2022-01-09T16:37:00,pkn,1.20
2022-01-09T16:39:00,pkn,1.20
2022-01-09T16:41:00,pkn,2.40
2022-01-09T16:43:00,pkn,1.20
2022-01-09T16:45:00,pkn,2.40
2022-01-09T16:47:00,pkn,1.20
2022-01-09T16:48:00,pkn,1.20
2022-01-09T16:50:00,pkn,1.20
2022-01-09T16:52:00,pkn,2.40
2022-01-09T16:54:00,pkn,1.20
2022-01-09T16:55:00,pkn,1.20
2022-01-09T16:56:00,pkn,1.20
2022-01-09T16:57:00,pkn,1.20
2022-01-09T16:59:00,pkn,10.80
2022-01-09T17:01:00,pkn,8.40
2022-01-09T17:03:00,pkn,9.60
2022-01-09T17:05:00,pkn,2.40
2022-01-09T17:08:00,pkn,2.40
2022-01-09T17:09:00,pkn,1.20
2022-01-09T17:11:00,pkn,1.20
2022-01-09T17:13:00,pkn,2.40
2022-01-09T17:15:00,pkn,2.40
2022-01-09T17:16:00,pkn,1.20
2022-01-09T17:18:00,pkn,1.20
2022-01-09T17:20:00,pkn,2.40
2022-01-09T17:22:00,pkn,2.40
2022-01-09T17:24:00,pkn,2.40
2022-01-09T17:26:00,pkn,1.20
2022-01-09T17:27:00,pkn,1.20
2022-01-09T17:29:00,pkn,2.40
2022-01-09T17:31:00,pkn,2.40
2022-01-09T17:33:00,pkn,2.40
2022-01-09T17:35:00,pkn,8.40
2022-01-09T17:37:00,pkn,9.60
2022-01-09T17:38:00,pkn,1.20
2022-01-09T17:39:00,pkn,8.40
2022-01-09T17:40:00,pkn,3.60
2022-01-09T17:42:00,pkn,1.20
2022-01-09T17:44:00,pkn,2.40
2022-01-09T17:46:00,pkn,1.20
2022-01-09T17:48:00,pkn,2.40
2022-01-09T17:49:00,pkn,1.20
2022-01-09T17:52:00,pkn,2.40
2022-01-09T17:55:00,pkn,2.40
2022-01-09T17:56:00,pkn,1.20
2022-01-09T17:57:00,pkn,1.20
2022-01-09T17:58:00,pkn,1.20
2022-01-09T18:00:00,pkn,1.20
2022-01-09T18:02:00,pkn,2.40
2022-01-09T18:04:00,pkn,2.40
2022-01-09T18:06:00,pkn,2.40
2022-01-09T18:08:00,pkn,1.20
2022-01-09T18:09:00,pkn,1.20
2022-01-09T18:11:00,pkn,2.40
2022-01-09T18:12:00,pkn,1.20
2022-01-09T18:14:00,pkn,2.40
2022-01-09T18:16:00,pkn,1.20
2022-01-09T18:17:00,pkn,1.20
2022-01-09T18:19:00,pkn,3.60
2022-01-09T18:20:00,pkn,4.80
2022-01-09T18:21:00,pkn,7.20
2022-01-09T18:23:00,pkn,15.60
2022-01-09T18:24:00,pkn,7.20
2022-01-09T18:26:00,pkn,9.60
2022-01-09T18:28:00,pkn,8.40
2022-01-09T18:30:00,pkn,7.20
2022-01-09T18:32:00,pkn,6.00
2022-01-09T18:33:00,pkn,1.20
2022-01-09T18:35:00,pkn,7.20
2022-01-09T18:37:00,pkn,3.60
2022-01-09T18:38:00,pkn,1.20
2022-01-09T18:39:00,pkn,1.20
2022-01-09T18:41:00,pkn,2.40
2022-01-09T18:43:00,pkn,1.20
2022-01-09T18:44:00,pkn,1.20
2022-01-09T18:45:00,pkn,1.20
2022-01-09T18:47:00,pkn,2.40
2022-01-09T18:48:00,pkn,1.20
2022-01-09T18:49:00,pkn,1.20
2022-01-09T18:51:00,pkn,1.20
2022-01-09T18:52:00,pkn,1.20
2022-01-09T18:54:00,pkn,3.60
2022-01-09T18:56:00,pkn,2.40
2022-01-09T18:57:00,pkn,1.20
2022-01-09T18:59:00,pkn,1.20
2022-01-09T19:01:00,pkn,2.40
2022-01-09T19:03:00,pkn,2.40
2022-01-09T19:05:00,pkn,1.20
2022-01-09T19:07:00,pkn,6.00
2022-01-09T19:09:00,pkn,9.60
2022-01-09T19:10:00,pkn,6.00
2022-01-09T19:12:00,pkn,8.40
2022-01-09T19:14:00,pkn,2.40
2022-01-09T19:16:00,pkn,2.40
2022-01-09T19:18:00,pkn,1.20
2022-01-09T19:19:00,pkn,1.20
2022-01-09T19:21:00,pkn,2.40
2022-01-09T19:23:00,pkn,2.40
2022-01-09T19:25:00,pkn,2.40
2022-01-09T19:26:00,pkn,1.20
2022-01-09T19:28:00,pkn,1.20
2022-01-09T19:29:00,pkn,1.20
2022-01-09T19:31:00,pkn,2.40
2022-01-09T19:32:00,pkn,1.20
2022-01-09T19:34:00,pkn,2.40
2022-01-09T19:37:00,pkn,2.40
2022-01-09T19:38:00,pkn,1.20
2022-01-09T19:40:00,pkn,1.20
2022-01-09T19:41:00,pkn,1.20
2022-01-09T19:43:00,pkn,2.40
2022-01-09T19:44:00,pkn,1.20
2022-01-09T19:46:00,pkn,1.20
2022-01-09T19:48:00,pkn,2.40
2022-01-09T19:50:00,pkn,1.20
2022-01-09T19:52:00,pkn,2.40
2022-01-09T19:54:00,pkn,2.40
2022-01-09T19:55:00,pkn,1.20
2022-01-09T19:57:00,pkn,2.40
2022-01-09T19:59:00,pkn,2.40
2022-01-09T20:00:00,pkn,4.80
2022-01-09T20:02:00,pkn,10.80
2022-01-09T20:03:00,pkn,6.00
2022-01-09T20:04:00,pkn,3.60
2022-01-09T20:06:00,pkn,3.60
2022-01-09T20:08:00,pkn,2.40
2022-01-09T20:10:00,pkn,1.20
2022-01-09T20:12:00,pkn,2.40
2022-01-09T20:14:00,pkn,2.40
2022-01-09T20:17:00,pkn,2.40
2022-01-09T20:19:00,pkn,2.40
2022-01-09T20:21:00,pkn,1.20
2022-01-09T20:23:00,pkn,2.40
2022-01-09T20:25:00,pkn,1.20
2022-01-09T20:27:00,pkn,2.40
2022-01-09T20:28:00,pkn,1.20
2022-01-09T20:29:00,pkn,1.20
2022-01-09T20:31:00,pkn,1.20
2022-01-09T20:33:00,pkn,2.40
2022-01-09T20:34:00,pkn,1.20
2022-01-09T20:36:00,pkn,2.40
2022-01-09T20:38:00,pkn,2.40
2022-01-09T20:40:00,pkn,1.20
2022-01-09T20:42:00,pkn,2.40
2022-01-09T20:44:00,pkn,2.40
2022-01-09T20:45:00,pkn,1.20
2022-01-09T20:48:00,pkn,2.40
2022-01-09T20:50:00,pkn,2.40
2022-01-09T20:52:00,pkn,2.40
2022-01-09T20:54:00,pkn,2.40
2022-01-09T20:56:00,pkn,1.20
2022-01-09T20:58:00,pkn,3.60
2022-01-09T21:00:00,pkn,9.60
2022-01-09T21:01:00,pkn,6.00
2022-01-09T21:03:00,pkn,9.60
2022-01-09T21:04:00,pkn,3.60
2022-01-09T21:06:00,pkn,2.40
2022-01-09T21:07:00,pkn,1.20
2022-01-09T21:09:00,pkn,2.40
2022-01-09T21:12:00,pkn,2.40
2022-01-09T21:14:00,pkn,2.40
2022-01-09T21:15:00,pkn,1.20
2022-01-09T21:17:00,pkn,2.40
2022-01-09T21:19:00,pkn,4.80
2022-01-09T21:21:00,pkn,3.60
2022-01-09T21:23:00,pkn,4.80
2022-01-09T21:25:00,pkn,3.60
2022-01-09T21:27:00,pkn,2.40
2022-01-09T21:29:00,pkn,3.60
2022-01-09T21:31:00,pkn,1.20
2022-01-09T21:32:00,pkn,1.20
2022-01-09T21:33:00,pkn,1.20
2022-01-09T21:35:00,pkn,2.40
2022-01-09T21:36:00,pkn,1.20
2022-01-09T21:38:00,pkn,10.80
2022-01-09T21:39:00,pkn,6.00
2022-01-09T21:41:00,pkn,9.60
2022-01-09T21:43:00,pkn,9.60
2022-01-09T21:44:00,pkn,6.00
2022-01-09T21:46:00,pkn,10.80
2022-01-09T21:48:00,pkn,9.60
2022-01-09T21:49:00,pkn,6.00
2022-01-09T21:51:00,pkn,9.60
2022-01-09T21:53:00,pkn,2.40
2022-01-09T21:54:00,pkn,1.20
2022-01-09T21:56:00,pkn,1.20
2022-01-09T21:57:00,pkn,1.20
2022-01-09T21:59:00,pkn,2.40
2022-01-09T22:01:00,pkn,2.40
2022-01-09T22:03:00,pkn,1.20
2022-01-09T22:04:00,pkn,4.80
2022-01-09T22:06:00,pkn,10.80
2022-01-09T22:08:00,pkn,9.60
2022-01-09T22:10:00,pkn,10.80
2022-01-09T22:11:00,pkn,4.80
2022-01-09T22:13:00,pkn,2.40
2022-01-09T22:14:00,pkn,1.20
2022-01-09T22:15:00,pkn,1.20
2022-01-09T22:17:00,pkn,1.20
2022-01-09T22:19:00,pkn,2.40
2022-01-09T22:20:00,pkn,1.20
2022-01-09T22:22:00,pkn,2.40
2022-01-09T22:25:00,pkn,2.40
2022-01-09T22:26:00,pkn,1.20
2022-01-09T22:28:00,pkn,4.80
2022-01-09T22:30:00,pkn,10.80
2022-01-09T22:32:00,pkn,8.40
2022-01-09T22:34:00,pkn,10.80
2022-01-09T22:36:00,pkn,4.80
2022-01-09T22:38:00,pkn,2.40
2022-01-09T22:40:00,pkn,1.20
2022-01-09T22:42:00,pkn,2.40
2022-01-09T22:43:00,pkn,1.20
2022-01-09T22:45:00,pkn,1.20
2022-01-09T22:46:00,pkn,1.20
2022-01-09T22:48:00,pkn,1.20
2022-01-09T22:49:00,pkn,1.20
2022-01-09T22:51:00,pkn,2.40
2022-01-09T22:53:00,pkn,2.40
2022-01-09T22:55:00,pkn,4.80
2022-01-09T22:56:00,pkn,4.80
2022-01-09T22:57:00,pkn,4.80
2022-01-09T22:59:00,pkn,10.80
2022-01-09T23:01:00,pkn,10.80
2022-01-09T23:03:00,pkn,1.20
2022-01-09T23:05:00,pkn,2.40
2022-01-09T23:07:00,pkn,2.40
2022-01-09T23:09:00,pkn,1.20
2022-01-09T23:11:00,pkn,2.40
2022-01-09T23:13:00,pkn,2.40
2022-01-09T23:15:00,pkn,2.40
2022-01-09T23:17:00,pkn,2.40
2022-01-09T23:20:00,pkn,2.40
2022-01-09T23:21:00,pkn,1.20
2022-01-09T23:23:00,pkn,2.40
2022-01-09T23:25:00,pkn,2.40
2022-01-09T23:26:00,pkn,4.80
2022-01-09T23:27:00,pkn,4.80
2022-01-09T23:29:00,pkn,9.60
2022-01-09T23:31:00,pkn,10.80
2022-01-09T23:33:00,pkn,2.40
2022-01-09T23:35:00,pkn,2.40
2022-01-09T23:38:00,pkn,3.60
2022-01-09T23:40:00,pkn,1.20
2022-01-09T23:41:00,pkn,1.20
2022-01-09T23:43:00,pkn,2.40
2022-01-09T23:44:00,pkn,4.80
2022-01-09T23:46:00,pkn,12.00
2022-01-09T23:48:00,pkn,12.00
2022-01-09T23:49:00,pkn,6.00
2022-01-09T23:51:00,pkn,12.00
2022-01-09T23:53:00,pkn,9.60
2022-01-09T23:54:00,pkn,3.60
2022-01-09T23:57:00,pkn,2.40
2022-01-09T23:59:00,pkn,1.20
